ASA3 KDCA-KSEA

Flight info

Callsign ASA3
Flight time N/A
Altitude 36000
Route HORTO4 BUFFR Q178 DJB J34 VIO TROLL CLAPS ABR MLS/N0446F380 CUSDA MLP GLASR3
Aircraft B38M/M-SDE1FGHILORVWXY/HB1

Departure

Time 2026-04-22 05:19
Airport Ronald Reagan Washington National Airport (KDCA)

Arrival

Time N/A
Airport Seattle–Tacoma International Airport (KSEA)
Time Latitude Longitude Altitude Speed Heading
2026-04-22 04:48 38.85146 -77.04095 26 ft 0 kts 320°
2026-04-22 05:09 38.85130 -77.04078 26 ft 4 kts 320°
2026-04-22 05:09 38.85114 -77.04061 26 ft 4 kts 311°
2026-04-22 05:10 38.85108 -77.04036 26 ft 2 kts 261°
2026-04-22 05:10 38.85112 -77.04006 26 ft 4 kts 261°
2026-04-22 05:10 38.85110 -77.03978 26 ft 4 kts 317°
2026-04-22 05:10 38.85089 -77.03970 26 ft 4 kts 355°
2026-04-22 05:11 38.85077 -77.03969 26 ft 0 kts 355°
2026-04-22 05:14 38.85080 -77.03969 26 ft 1 kts 355°
2026-04-22 05:15 38.85095 -77.03971 26 ft 0 kts 355°
2026-04-22 05:15 38.85129 -77.03974 26 ft 10 kts 355°
2026-04-22 05:15 38.85209 -77.03982 26 ft 12 kts 355°
2026-04-22 05:16 38.85298 -77.03991 26 ft 14 kts 355°
2026-04-22 05:16 38.85396 -77.04001 26 ft 15 kts 355°
2026-04-22 05:16 38.85502 -77.04019 26 ft 16 kts 347°
2026-04-22 05:16 38.85573 -77.03970 27 ft 11 kts 35°
2026-04-22 05:17 38.85649 -77.03966 27 ft 11 kts 355°
2026-04-22 05:17 38.85728 -77.03976 28 ft 13 kts 356°
2026-04-22 05:17 38.85853 -77.03988 27 ft 20 kts 354°
2026-04-22 05:17 38.85917 -77.03985 27 ft 6 kts 10°
2026-04-22 05:18 38.86045 -77.03940 26 ft 13 kts 19°
2026-04-22 05:18 38.86073 -77.03875 28 ft 9 kts 150°
2026-04-22 05:18 38.86002 -77.03859 26 ft 18 kts 173°
2026-04-22 05:19 38.85742 -77.03829 27 ft 70 kts 174°
2026-04-22 05:19 38.85003 -77.03759 29 ft 141 kts 176°
2026-04-22 05:19 38.83834 -77.03647 116 ft 191 kts 175°
2026-04-22 05:19 38.82433 -77.03540 772 ft 212 kts 176°
2026-04-22 05:20 38.80937 -77.03545 1911 ft 218 kts 183°
2026-04-22 05:20 38.79410 -77.03518 2846 ft 229 kts 186°
2026-04-22 05:20 38.77758 -77.03571 3544 ft 246 kts 189°
2026-04-22 05:20 38.76009 -77.03807 4194 ft 257 kts 200°
2026-04-22 05:21 38.74487 -77.04830 4990 ft 249 kts 226°
2026-04-22 05:21 38.73513 -77.06597 4902 ft 239 kts 253°
2026-04-22 05:21 38.73295 -77.08692 4849 ft 241 kts 278°
2026-04-22 05:21 38.73624 -77.10807 5245 ft 243 kts 277°
2026-04-22 05:22 38.73815 -77.12941 6281 ft 241 kts 275°
2026-04-22 05:22 38.73911 -77.15072 7190 ft 245 kts 273°
2026-04-22 05:22 38.73930 -77.17269 8058 ft 250 kts 272°
2026-04-22 05:22 38.73892 -77.19512 8925 ft 254 kts 271°
2026-04-22 05:23 38.73833 -77.21794 9771 ft 258 kts 276°
2026-04-22 05:23 38.74317 -77.23997 10438 ft 265 kts 300°
2026-04-22 05:23 38.75600 -77.25793 10798 ft 287 kts 323°
2026-04-22 05:23 38.77478 -77.26909 11211 ft 308 kts 335°
2026-04-22 05:24 38.79520 -77.27914 11712 ft 319 kts 335°
2026-04-22 05:24 38.81593 -77.28944 12513 ft 321 kts 334°
2026-04-22 05:24 38.83489 -77.30433 13166 ft 321 kts 313°
2026-04-22 05:24 38.84774 -77.32751 13887 ft 323 kts 293°
2026-04-22 05:25 38.85373 -77.35498 14499 ft 326 kts 281°
2026-04-22 05:25 38.85788 -77.38371 15148 ft 330 kts 281°
2026-04-22 05:25 38.86187 -77.41283 15802 ft 333 kts 280°
2026-04-22 05:25 38.86576 -77.44220 16452 ft 335 kts 279°
2026-04-22 05:26 38.86958 -77.47184 17084 ft 338 kts 279°
2026-04-22 05:26 38.87337 -77.50174 17711 ft 341 kts 279°
2026-04-22 05:26 38.87716 -77.53189 18318 ft 344 kts 279°
2026-04-22 05:26 38.88097 -77.56227 18855 ft 346 kts 279°
2026-04-22 05:27 38.88480 -77.59292 19373 ft 349 kts 279°
2026-04-22 05:27 38.88860 -77.62342 19829 ft 353 kts 279°
2026-04-22 05:27 38.89248 -77.65464 20341 ft 355 kts 279°
2026-04-22 05:27 38.89636 -77.68605 20841 ft 358 kts 279°
2026-04-22 05:28 38.90028 -77.71769 21344 ft 360 kts 280°
2026-04-22 05:28 38.90420 -77.74956 21847 ft 363 kts 280°
2026-04-22 05:28 38.90815 -77.78160 22324 ft 365 kts 280°
2026-04-22 05:28 38.91211 -77.81393 22799 ft 368 kts 280°
2026-04-22 05:29 38.91610 -77.84650 23269 ft 370 kts 281°
2026-04-22 05:29 38.92010 -77.87929 23725 ft 373 kts 281°
2026-04-22 05:29 38.92407 -77.91187 24105 ft 375 kts 281°
2026-04-22 05:29 38.92810 -77.94506 24502 ft 377 kts 281°
2026-04-22 05:30 38.93214 -77.97840 24885 ft 379 kts 281°
2026-04-22 05:30 38.93619 -78.01186 25252 ft 381 kts 281°
2026-04-22 05:30 38.94026 -78.04561 25639 ft 382 kts 281°
2026-04-22 05:30 38.94433 -78.07937 26012 ft 384 kts 281°
2026-04-22 05:31 38.94841 -78.11338 26388 ft 386 kts 281°
2026-04-22 05:31 38.95251 -78.14756 26738 ft 388 kts 281°
2026-04-22 05:31 38.95662 -78.18196 27101 ft 390 kts 281°
2026-04-22 05:31 38.96040 -78.21608 27431 ft 393 kts 277°
2026-04-22 05:32 38.96244 -78.25116 27779 ft 395 kts 277°
2026-04-22 05:32 38.96460 -78.28638 28121 ft 396 kts 277°
2026-04-22 05:32 38.96685 -78.32176 28449 ft 398 kts 277°
2026-04-22 05:32 38.96915 -78.35728 28798 ft 400 kts 277°
2026-04-22 05:33 38.97147 -78.39297 29106 ft 402 kts 277°
2026-04-22 05:33 38.97379 -78.42881 29406 ft 404 kts 277°
2026-04-22 05:33 38.97610 -78.46475 29732 ft 405 kts 277°
2026-04-22 05:33 38.97842 -78.50101 30037 ft 407 kts 277°
2026-04-22 05:34 38.98074 -78.53725 30334 ft 409 kts 277°
2026-04-22 05:34 38.98303 -78.57324 30578 ft 410 kts 277°
2026-04-22 05:34 38.98534 -78.60985 30838 ft 412 kts 277°
2026-04-22 05:34 38.98766 -78.64661 31095 ft 413 kts 277°
2026-04-22 05:35 38.98996 -78.68342 31419 ft 413 kts 277°
2026-04-22 05:35 38.99225 -78.72016 31743 ft 412 kts 277°
2026-04-22 05:35 38.99452 -78.75687 32071 ft 411 kts 277°
2026-04-22 05:35 38.99678 -78.79349 32425 ft 411 kts 277°
2026-04-22 05:36 39.00044 -78.82972 32734 ft 407 kts 288°
2026-04-22 05:36 39.01334 -78.86144 33131 ft 402 kts 310°
2026-04-22 05:36 39.03464 -78.88388 33350 ft 408 kts 328°
2026-04-22 05:36 39.06055 -78.89930 33567 ft 411 kts 330°
2026-04-22 05:37 39.08407 -78.91940 33850 ft 403 kts 316°
2026-04-22 05:37 39.10490 -78.94355 34110 ft 403 kts 315°
2026-04-22 05:37 39.12513 -78.96857 34332 ft 403 kts 313°
2026-04-22 05:37 39.14486 -78.99416 34574 ft 402 kts 312°
2026-04-22 05:38 39.16434 -79.02001 34792 ft 402 kts 312°
2026-04-22 05:38 39.18368 -79.04599 35024 ft 401 kts 312°
2026-04-22 05:38 39.20265 -79.07171 35221 ft 401 kts 311°
2026-04-22 05:38 39.22186 -79.09787 35405 ft 402 kts 311°
2026-04-22 05:39 39.24102 -79.12401 35604 ft 402 kts 311°
2026-04-22 05:39 39.26029 -79.15037 35680 ft 403 kts 311°
2026-04-22 05:39 39.27946 -79.17658 35954 ft 401 kts 311°
2026-04-22 05:39 39.29860 -79.20277 36130 ft 401 kts 311°
2026-04-22 05:40 39.33694 -79.25530 36126 ft 401 kts 311°
2026-04-22 05:40 39.37521 -79.30784 36127 ft 402 kts 311°
2026-04-22 05:41 39.41323 -79.36012 36126 ft 402 kts 311°
2026-04-22 05:41 39.45146 -79.41278 36126 ft 402 kts 311°
2026-04-22 05:42 39.48976 -79.46563 36125 ft 404 kts 311°
2026-04-22 05:42 39.52825 -79.51882 36120 ft 404 kts 311°
2026-04-22 05:43 39.56669 -79.57205 36134 ft 405 kts 311°
2026-04-22 05:43 39.60493 -79.62509 36109 ft 405 kts 311°
2026-04-22 05:44 39.64339 -79.67852 36103 ft 405 kts 311°
2026-04-22 05:44 39.68184 -79.73205 36115 ft 405 kts 311°
2026-04-22 05:45 39.72030 -79.78567 36120 ft 406 kts 311°
2026-04-22 05:45 39.75840 -79.83889 36109 ft 404 kts 311°
2026-04-22 05:46 39.79662 -79.89237 36110 ft 404 kts 311°
2026-04-22 05:46 39.83484 -79.94593 36118 ft 404 kts 312°
2026-04-22 05:47 39.87292 -79.99940 36098 ft 403 kts 312°
2026-04-22 05:47 39.91106 -80.05305 36089 ft 403 kts 312°
2026-04-22 05:48 39.94911 -80.10667 36081 ft 403 kts 312°
2026-04-22 05:48 39.98693 -80.16006 36080 ft 403 kts 312°
2026-04-22 05:49 40.02496 -80.21383 36084 ft 404 kts 312°
2026-04-22 05:49 40.06304 -80.26777 36080 ft 404 kts 312°
2026-04-22 05:50 40.10103 -80.32169 36088 ft 402 kts 312°
2026-04-22 05:50 40.13865 -80.37516 36095 ft 402 kts 312°
2026-04-22 05:51 40.17650 -80.42906 36093 ft 402 kts 312°
2026-04-22 05:51 40.21430 -80.48299 36070 ft 402 kts 311°
2026-04-22 05:52 40.24574 -80.52766 36076 ft 402 kts 311°
2026-04-22 05:52 40.28338 -80.58183 36072 ft 402 kts 312°
2026-04-22 05:53 40.32719 -80.64463 36058 ft 402 kts 312°
2026-04-22 05:53 40.35850 -80.68961 36066 ft 402 kts 312°
2026-04-22 05:54 40.39615 -80.74378 36064 ft 402 kts 311°
2026-04-22 05:54 40.43374 -80.79797 36056 ft 402 kts 311°
2026-04-22 05:55 40.47742 -80.86105 36053 ft 402 kts 311°
2026-04-22 05:55 40.50890 -80.90660 36055 ft 402 kts 311°
2026-04-22 05:56 40.54615 -80.96058 36047 ft 401 kts 311°
2026-04-22 05:56 40.58358 -81.01494 36046 ft 400 kts 311°
2026-04-22 05:57 40.62087 -81.06917 36041 ft 400 kts 311°
2026-04-22 05:57 40.65820 -81.12357 36041 ft 400 kts 311°
2026-04-22 05:58 40.69517 -81.17753 36037 ft 400 kts 311°
2026-04-22 05:58 40.73239 -81.23197 36033 ft 400 kts 311°
2026-04-22 05:59 40.76961 -81.28648 36018 ft 400 kts 311°
2026-04-22 05:59 40.80683 -81.34111 36037 ft 400 kts 311°
2026-04-22 06:00 40.84402 -81.39580 36029 ft 400 kts 311°
2026-04-22 06:00 40.88090 -81.45012 36024 ft 400 kts 311°
2026-04-22 06:01 40.91805 -81.50494 36028 ft 400 kts 311°
2026-04-22 06:01 40.95518 -81.55983 36025 ft 400 kts 311°
2026-04-22 06:02 40.99226 -81.61475 36021 ft 400 kts 311°
2026-04-22 06:02 41.02910 -81.66940 36007 ft 400 kts 311°
2026-04-22 06:03 41.06613 -81.72446 36036 ft 400 kts 311°
2026-04-22 06:03 41.10306 -81.77944 36024 ft 399 kts 311°
2026-04-22 06:04 41.13992 -81.83444 36022 ft 399 kts 311°
2026-04-22 06:04 41.17680 -81.88954 36001 ft 399 kts 311°
2026-04-22 06:05 41.21342 -81.94433 35997 ft 399 kts 311°
2026-04-22 06:05 41.25025 -81.99956 36005 ft 399 kts 311°
2026-04-22 06:06 41.28706 -82.05484 35999 ft 399 kts 311°
2026-04-22 06:06 41.32379 -82.11011 35997 ft 398 kts 311°
2026-04-22 06:07 41.35967 -82.16553 35991 ft 398 kts 305°
2026-04-22 06:07 41.39160 -82.22567 35995 ft 398 kts 306°
2026-04-22 06:08 41.42414 -82.28539 36000 ft 398 kts 306°
2026-04-22 06:08 41.45656 -82.34469 36000 ft 398 kts 306°
2026-04-22 06:09 41.48911 -82.40434 35992 ft 398 kts 306°
2026-04-22 06:09 41.52168 -82.46420 35998 ft 399 kts 306°
2026-04-22 06:10 41.55403 -82.52437 35993 ft 399 kts 306°
2026-04-22 06:10 41.58635 -82.58455 35985 ft 399 kts 306°
2026-04-22 06:11 41.61847 -82.64447 35983 ft 399 kts 306°
2026-04-22 06:11 41.65074 -82.70480 35984 ft 399 kts 306°
2026-04-22 06:12 41.68303 -82.76526 35982 ft 399 kts 306°
2026-04-22 06:12 41.71522 -82.82570 35978 ft 399 kts 306°
2026-04-22 06:13 41.74744 -82.88630 35980 ft 399 kts 306°
2026-04-22 06:13 41.77940 -82.94654 35990 ft 399 kts 306°
2026-04-22 06:14 41.81156 -83.00726 35983 ft 400 kts 306°
2026-04-22 06:14 41.84372 -83.06812 35982 ft 400 kts 306°
2026-04-22 06:15 41.87583 -83.12901 35983 ft 400 kts 306°
2026-04-22 06:15 41.90773 -83.19003 35978 ft 400 kts 305°
2026-04-22 06:16 41.93961 -83.25056 35977 ft 400 kts 307°
2026-04-22 06:16 41.97174 -83.31160 35978 ft 400 kts 307°
2026-04-22 06:17 42.00370 -83.37266 35980 ft 400 kts 306°
2026-04-22 06:17 42.03567 -83.43387 35981 ft 400 kts 307°
2026-04-22 06:18 42.06309 -83.49835 35980 ft 401 kts 299°
2026-04-22 06:18 42.08838 -83.56535 35958 ft 401 kts 300°
2026-04-22 06:19 42.11348 -83.63246 35965 ft 401 kts 300°
2026-04-22 06:19 42.13851 -83.69961 35966 ft 401 kts 300°
2026-04-22 06:20 42.16334 -83.76639 35970 ft 401 kts 300°
2026-04-22 06:20 42.18828 -83.83362 35980 ft 401 kts 300°
2026-04-22 06:21 42.21320 -83.90096 35979 ft 401 kts 300°
2026-04-22 06:21 42.23804 -83.96824 35973 ft 401 kts 300°
2026-04-22 06:22 42.26285 -84.03561 35983 ft 400 kts 300°
2026-04-22 06:22 42.28757 -84.10286 35976 ft 400 kts 300°
2026-04-22 06:23 42.31208 -84.16972 35975 ft 400 kts 300°
2026-04-22 06:23 42.33670 -84.23706 35982 ft 400 kts 300°
2026-04-22 06:24 42.37354 -84.33808 35965 ft 399 kts 300°
2026-04-22 06:25 42.39805 -84.40549 35994 ft 399 kts 300°
2026-04-22 06:25 42.42236 -84.47248 35989 ft 399 kts 300°
2026-04-22 06:26 42.44677 -84.53999 35988 ft 399 kts 300°
2026-04-22 06:26 42.47115 -84.60754 35987 ft 399 kts 300°
2026-04-22 06:27 42.49549 -84.67514 35973 ft 399 kts 300°
2026-04-22 06:27 42.51951 -84.74202 35985 ft 397 kts 300°
2026-04-22 06:28 42.54365 -84.80939 35992 ft 397 kts 300°
2026-04-22 06:28 42.56775 -84.87680 35993 ft 397 kts 300°
2026-04-22 06:29 42.59181 -84.94428 35987 ft 397 kts 300°
2026-04-22 06:29 42.61567 -85.01135 35987 ft 397 kts 300°
2026-04-22 06:30 42.63962 -85.07882 35976 ft 397 kts 300°
2026-04-22 06:30 42.66353 -85.14633 35986 ft 396 kts 300°
2026-04-22 06:31 42.68736 -85.21388 35984 ft 396 kts 300°
2026-04-22 06:31 42.71102 -85.28106 35975 ft 396 kts 300°
2026-04-22 06:32 42.73480 -85.34872 35979 ft 396 kts 300°
2026-04-22 06:32 42.75852 -85.41643 35983 ft 396 kts 300°
2026-04-22 06:33 42.78222 -85.48421 35988 ft 397 kts 299°
2026-04-22 06:33 42.80111 -85.55526 35992 ft 400 kts 294°
2026-04-22 06:34 42.81980 -85.62608 35988 ft 400 kts 295°
2026-04-22 06:34 42.83874 -85.69732 35983 ft 400 kts 295°
2026-04-22 06:35 42.85765 -85.76858 35983 ft 400 kts 295°
2026-04-22 06:35 42.87651 -85.83984 35977 ft 400 kts 295°
2026-04-22 06:36 42.89534 -85.91121 35964 ft 400 kts 294°
2026-04-22 06:36 42.91401 -85.98215 35966 ft 400 kts 294°
2026-04-22 06:37 42.93275 -86.05360 35967 ft 400 kts 294°
2026-04-22 06:37 42.95145 -86.12510 35970 ft 400 kts 294°
2026-04-22 06:38 42.97009 -86.19657 35947 ft 400 kts 294°
2026-04-22 06:38 42.98872 -86.26824 35967 ft 401 kts 294°
2026-04-22 06:39 43.00720 -86.33954 35966 ft 401 kts 294°
2026-04-22 06:39 43.02576 -86.41134 35968 ft 401 kts 294°
2026-04-22 06:40 43.04427 -86.48319 35971 ft 401 kts 294°
2026-04-22 06:40 43.06272 -86.55500 35966 ft 401 kts 294°
2026-04-22 06:41 43.08103 -86.62651 35962 ft 402 kts 294°
2026-04-22 06:41 43.09946 -86.69869 35969 ft 402 kts 294°
2026-04-22 06:42 43.11783 -86.77087 35973 ft 402 kts 294°
2026-04-22 06:42 43.13616 -86.84310 35976 ft 402 kts 294°
2026-04-22 06:43 43.15442 -86.91531 35974 ft 402 kts 294°
2026-04-22 06:43 43.17254 -86.98714 35977 ft 402 kts 294°
2026-04-22 06:44 43.19074 -87.05953 35984 ft 402 kts 294°
2026-04-22 06:44 43.20882 -87.13166 35963 ft 398 kts 294°
2026-04-22 06:45 43.22677 -87.20352 35972 ft 399 kts 294°
2026-04-22 06:45 43.24458 -87.27500 35975 ft 399 kts 294°
2026-04-22 06:46 43.26243 -87.34691 35951 ft 398 kts 294°
2026-04-22 06:46 43.28024 -87.41883 35965 ft 398 kts 294°
2026-04-22 06:47 43.29799 -87.49078 35967 ft 398 kts 294°
2026-04-22 06:47 43.31568 -87.56269 35960 ft 398 kts 294°
2026-04-22 06:48 43.33323 -87.63423 35964 ft 398 kts 293°
2026-04-22 06:48 43.35084 -87.70628 35964 ft 398 kts 293°
2026-04-22 06:49 43.36841 -87.77838 35959 ft 398 kts 293°
2026-04-22 06:49 43.38594 -87.85055 35960 ft 398 kts 293°
2026-04-22 06:50 43.40329 -87.92217 35953 ft 398 kts 293°
2026-04-22 06:50 43.42072 -87.99440 35966 ft 397 kts 293°
2026-04-22 06:51 43.43806 -88.06645 35948 ft 396 kts 293°
2026-04-22 06:51 43.45537 -88.13860 35976 ft 398 kts 293°
2026-04-22 06:52 43.47268 -88.21102 35979 ft 398 kts 292°
2026-04-22 06:52 43.48981 -88.28289 35973 ft 398 kts 292°
2026-04-22 06:53 43.50703 -88.35537 35964 ft 398 kts 292°
2026-04-22 06:53 43.52420 -88.42788 35936 ft 398 kts 292°
2026-04-22 06:54 43.54133 -88.50045 35917 ft 399 kts 292°
2026-04-22 06:54 43.55836 -88.57283 35936 ft 400 kts 292°
2026-04-22 06:55 43.57545 -88.64569 35928 ft 400 kts 292°
2026-04-22 06:55 43.59251 -88.71869 35936 ft 400 kts 292°
2026-04-22 06:56 43.60953 -88.79176 35949 ft 400 kts 292°
2026-04-22 06:56 43.62639 -88.86435 35937 ft 400 kts 292°
2026-04-22 06:57 43.64333 -88.93755 35940 ft 400 kts 292°
2026-04-22 06:57 43.66023 -89.01082 35941 ft 400 kts 292°
2026-04-22 06:58 43.67707 -89.08405 35948 ft 400 kts 291°
2026-04-22 06:58 43.69388 -89.15744 35947 ft 401 kts 291°
2026-04-22 06:59 43.71054 -89.23040 35946 ft 401 kts 291°
2026-04-22 06:59 43.72730 -89.30403 35944 ft 402 kts 291°
2026-04-22 07:00 43.74404 -89.37784 35947 ft 402 kts 291°
2026-04-22 07:00 43.76072 -89.45160 35953 ft 402 kts 291°
2026-04-22 07:01 43.77735 -89.52545 35948 ft 402 kts 291°
2026-04-22 07:01 43.79395 -89.59937 35944 ft 402 kts 291°
2026-04-22 07:02 43.81039 -89.67285 35943 ft 402 kts 291°
2026-04-22 07:02 43.82690 -89.74688 35943 ft 402 kts 291°
2026-04-22 07:03 43.84337 -89.82096 35950 ft 402 kts 291°
2026-04-22 07:03 43.85974 -89.89491 35951 ft 402 kts 291°
2026-04-22 07:04 43.87609 -89.96899 35946 ft 402 kts 291°
2026-04-22 07:04 43.89229 -90.04266 35954 ft 402 kts 291°
2026-04-22 07:05 43.90857 -90.11696 35961 ft 403 kts 290°
2026-04-22 07:05 43.92480 -90.19127 35971 ft 403 kts 290°
2026-04-22 07:06 43.94098 -90.26564 35969 ft 403 kts 290°
2026-04-22 07:06 43.95710 -90.33997 35972 ft 403 kts 290°
2026-04-22 07:07 43.97309 -90.41394 35954 ft 403 kts 290°
2026-04-22 07:07 43.98915 -90.48854 35969 ft 403 kts 290°
2026-04-22 07:08 44.00516 -90.56316 35972 ft 403 kts 290°
2026-04-22 07:08 44.02102 -90.63733 35977 ft 403 kts 290°
2026-04-22 07:09 44.03692 -90.71194 35980 ft 403 kts 290°
2026-04-22 07:09 44.05276 -90.78661 35963 ft 403 kts 290°
2026-04-22 07:10 44.06860 -90.86149 35977 ft 404 kts 290°
2026-04-22 07:10 44.08440 -90.93644 35984 ft 404 kts 290°
2026-04-22 07:11 44.10004 -91.01094 35971 ft 404 kts 290°
2026-04-22 07:11 44.11573 -91.08591 35968 ft 404 kts 290°
2026-04-22 07:12 44.13138 -91.16103 35945 ft 404 kts 289°
2026-04-22 07:12 44.14700 -91.23622 35965 ft 404 kts 289°
2026-04-22 07:13 44.16246 -91.31094 35967 ft 404 kts 289°
2026-04-22 07:13 44.17797 -91.38617 35974 ft 404 kts 289°
2026-04-22 07:14 44.19343 -91.46138 35976 ft 404 kts 289°
2026-04-22 07:14 44.20888 -91.53675 35969 ft 404 kts 289°
2026-04-22 07:15 44.22426 -91.61210 35988 ft 404 kts 289°
2026-04-22 07:15 44.23951 -91.68703 35986 ft 404 kts 289°
2026-04-22 07:16 44.25481 -91.76250 35984 ft 404 kts 289°
2026-04-22 07:16 44.27006 -91.83799 35983 ft 404 kts 289°
2026-04-22 07:17 44.28525 -91.91348 35952 ft 405 kts 289°
2026-04-22 07:17 44.30040 -91.98901 35973 ft 404 kts 289°
2026-04-22 07:18 44.31539 -92.06403 35989 ft 404 kts 289°
2026-04-22 07:18 44.33335 -92.13803 35998 ft 403 kts 292°
2026-04-22 07:19 44.35149 -92.21198 35972 ft 402 kts 292°
2026-04-22 07:19 44.36953 -92.28602 35976 ft 402 kts 291°
2026-04-22 07:20 44.38736 -92.35943 35978 ft 401 kts 291°
2026-04-22 07:20 44.40526 -92.43335 35990 ft 402 kts 291°
2026-04-22 07:21 44.42317 -92.50756 35982 ft 403 kts 291°
2026-04-22 07:21 44.44102 -92.58177 35976 ft 403 kts 291°
2026-04-22 07:22 44.45883 -92.65611 35976 ft 403 kts 291°
2026-04-22 07:22 44.47646 -92.72989 35977 ft 401 kts 291°
2026-04-22 07:23 44.49411 -92.80401 35977 ft 401 kts 291°
2026-04-22 07:23 44.51172 -92.87820 35988 ft 401 kts 291°
2026-04-22 07:24 44.52928 -92.95243 35990 ft 401 kts 291°
2026-04-22 07:24 44.54665 -93.02611 35993 ft 401 kts 291°
2026-04-22 07:25 44.56410 -93.10037 35978 ft 400 kts 291°
2026-04-22 07:25 44.58145 -93.17447 36004 ft 401 kts 290°
2026-04-22 07:26 44.59881 -93.24881 35997 ft 401 kts 290°
2026-04-22 07:26 44.61598 -93.32266 35999 ft 401 kts 290°
2026-04-22 07:27 44.63326 -93.39719 35993 ft 401 kts 290°
2026-04-22 07:27 44.65048 -93.47171 35992 ft 401 kts 290°
2026-04-22 07:28 44.67620 -93.58351 35974 ft 401 kts 290°
2026-04-22 07:28 44.69318 -93.65767 35975 ft 401 kts 290°
2026-04-22 07:29 44.71024 -93.73239 35976 ft 401 kts 290°
2026-04-22 07:29 44.72726 -93.80719 35969 ft 401 kts 290°
2026-04-22 07:30 44.74419 -93.88187 35967 ft 400 kts 290°
2026-04-22 07:30 44.76093 -93.95596 35970 ft 400 kts 290°
2026-04-22 07:31 44.77772 -94.03051 35971 ft 400 kts 290°
2026-04-22 07:31 44.79448 -94.10522 35970 ft 400 kts 290°
2026-04-22 07:32 44.81120 -94.17998 35972 ft 400 kts 290°
2026-04-22 07:32 44.82786 -94.25477 35978 ft 400 kts 289°
2026-04-22 07:33 44.84437 -94.32911 35979 ft 400 kts 289°
2026-04-22 07:33 44.86094 -94.40400 35980 ft 400 kts 289°
2026-04-22 07:34 44.87744 -94.47886 35979 ft 400 kts 289°
2026-04-22 07:34 44.89392 -94.55384 35979 ft 400 kts 289°
2026-04-22 07:35 44.91025 -94.62843 35984 ft 401 kts 289°
2026-04-22 07:35 44.92667 -94.70371 35956 ft 401 kts 289°
2026-04-22 07:36 44.94303 -94.77899 35951 ft 401 kts 289°
2026-04-22 07:36 44.95935 -94.85435 35951 ft 401 kts 289°
2026-04-22 07:37 44.97560 -94.92964 35948 ft 401 kts 289°
2026-04-22 07:37 44.99171 -95.00456 35941 ft 401 kts 289°
2026-04-22 07:38 45.00792 -95.08010 35943 ft 402 kts 289°
2026-04-22 07:38 45.02408 -95.15567 35941 ft 401 kts 289°
2026-04-22 07:39 45.04018 -95.23127 35941 ft 402 kts 288°
2026-04-22 07:39 45.05612 -95.30635 35941 ft 402 kts 288°
2026-04-22 07:40 45.06636 -95.38421 35934 ft 404 kts 282°
2026-04-22 07:40 45.07634 -95.46233 35945 ft 403 kts 282°
2026-04-22 07:41 45.08649 -95.54040 35942 ft 403 kts 282°
2026-04-22 07:41 45.09655 -95.61796 35942 ft 403 kts 282°
2026-04-22 07:42 45.10661 -95.69597 35938 ft 403 kts 282°
2026-04-22 07:42 45.11663 -95.77410 35915 ft 403 kts 282°
2026-04-22 07:43 45.12661 -95.85241 35929 ft 405 kts 282°
2026-04-22 07:43 45.13649 -95.93030 35922 ft 404 kts 282°
2026-04-22 07:44 45.14638 -96.00873 35926 ft 404 kts 282°
2026-04-22 07:44 45.15621 -96.08718 35924 ft 404 kts 282°
2026-04-22 07:45 45.16598 -96.16558 35910 ft 405 kts 281°
2026-04-22 07:45 45.17572 -96.24424 35926 ft 406 kts 281°
2026-04-22 07:46 45.18536 -96.32247 35924 ft 406 kts 281°
2026-04-22 07:46 45.19501 -96.40127 35924 ft 406 kts 281°
2026-04-22 07:47 45.20460 -96.48008 35932 ft 405 kts 281°
2026-04-22 07:47 45.21410 -96.55865 35910 ft 404 kts 281°
2026-04-22 07:48 45.22357 -96.63737 35901 ft 405 kts 281°
2026-04-22 07:48 45.23293 -96.71568 35901 ft 405 kts 281°
2026-04-22 07:49 45.24229 -96.79452 35894 ft 405 kts 281°
2026-04-22 07:49 45.25160 -96.87332 35901 ft 405 kts 281°
2026-04-22 07:50 45.26086 -96.95221 35886 ft 405 kts 281°
2026-04-22 07:50 45.27007 -97.03122 35895 ft 406 kts 280°
2026-04-22 07:51 45.27918 -97.10985 35895 ft 406 kts 280°
2026-04-22 07:51 45.28830 -97.18901 35887 ft 406 kts 280°
2026-04-22 07:52 45.29736 -97.26814 35889 ft 406 kts 280°
2026-04-22 07:52 45.30637 -97.34737 35865 ft 406 kts 280°
2026-04-22 07:53 45.31526 -97.42610 35879 ft 406 kts 280°
2026-04-22 07:53 45.32416 -97.50540 35869 ft 406 kts 280°
2026-04-22 07:54 45.33301 -97.58471 35875 ft 406 kts 280°
2026-04-22 07:54 45.34178 -97.66382 35864 ft 405 kts 279°
2026-04-22 07:55 45.35048 -97.74288 35874 ft 405 kts 279°
2026-04-22 07:55 45.35910 -97.82168 35857 ft 407 kts 279°
2026-04-22 07:56 45.36773 -97.90118 35858 ft 407 kts 279°
2026-04-22 07:56 45.37631 -97.98069 35851 ft 407 kts 279°
2026-04-22 07:57 45.38484 -98.06021 35852 ft 407 kts 279°
2026-04-22 07:57 45.39327 -98.13925 35862 ft 407 kts 279°
2026-04-22 07:58 45.40172 -98.21892 35863 ft 408 kts 279°
2026-04-22 07:58 45.41014 -98.29878 35860 ft 408 kts 278°
2026-04-22 07:59 45.41948 -98.37841 35846 ft 408 kts 284°
2026-04-22 07:59 45.43272 -98.45642 35858 ft 408 kts 283°
2026-04-22 08:00 45.44553 -98.53512 35865 ft 408 kts 283°
2026-04-22 08:00 45.45819 -98.61381 35869 ft 408 kts 282°
2026-04-22 08:01 45.47079 -98.69256 35860 ft 408 kts 282°
2026-04-22 08:01 45.48326 -98.77084 35864 ft 408 kts 282°
2026-04-22 08:02 45.49576 -98.84966 35864 ft 408 kts 282°
2026-04-22 08:02 45.50820 -98.92852 35858 ft 408 kts 282°
2026-04-22 08:03 45.52057 -99.00736 35851 ft 408 kts 282°
2026-04-22 08:03 45.53296 -99.08659 35849 ft 409 kts 282°
2026-04-22 08:04 45.54518 -99.16517 35858 ft 409 kts 282°
2026-04-22 08:04 45.55743 -99.24438 35836 ft 409 kts 282°
2026-04-22 08:05 45.56964 -99.32363 35843 ft 409 kts 282°
2026-04-22 08:05 45.58179 -99.40292 35822 ft 409 kts 281°
2026-04-22 08:06 45.59380 -99.48171 35834 ft 410 kts 281°
2026-04-22 08:06 45.60586 -99.56121 35826 ft 410 kts 281°
2026-04-22 08:07 45.61787 -99.64074 35829 ft 410 kts 281°
2026-04-22 08:07 45.62982 -99.72033 35826 ft 410 kts 281°
2026-04-22 08:08 45.63972 -99.78653 35812 ft 410 kts 281°
2026-04-22 08:08 45.65349 -99.87915 35808 ft 411 kts 281°
2026-04-22 08:09 45.66533 -99.95913 35808 ft 411 kts 281°
2026-04-22 08:09 45.67708 -100.03904 35813 ft 411 kts 281°
2026-04-22 08:10 45.68683 -100.10557 35808 ft 411 kts 281°
2026-04-22 08:10 45.70038 -100.19853 35807 ft 411 kts 281°
2026-04-22 08:11 45.71198 -100.27863 35821 ft 411 kts 280°
2026-04-22 08:11 45.72158 -100.34520 35809 ft 411 kts 280°
2026-04-22 08:12 45.73309 -100.42537 35802 ft 411 kts 280°
2026-04-22 08:12 45.74638 -100.51858 35802 ft 411 kts 280°
2026-04-22 08:13 45.75777 -100.59882 35803 ft 411 kts 280°
2026-04-22 08:13 45.76718 -100.66547 35805 ft 411 kts 279°
2026-04-22 08:14 45.77848 -100.74595 35795 ft 412 kts 279°
2026-04-22 08:14 45.78974 -100.82654 35801 ft 412 kts 279°
2026-04-22 08:15 45.80094 -100.90714 35796 ft 412 kts 279°
2026-04-22 08:15 45.81201 -100.98723 35796 ft 412 kts 279°
2026-04-22 08:16 45.82310 -101.06788 35800 ft 412 kts 279°
2026-04-22 08:16 45.83412 -101.14857 35809 ft 413 kts 279°
2026-04-22 08:17 45.84511 -101.22934 35800 ft 413 kts 279°
2026-04-22 08:17 45.85596 -101.30966 35806 ft 413 kts 279°
2026-04-22 08:18 45.86683 -101.39053 35803 ft 413 kts 279°
2026-04-22 08:18 45.87765 -101.47144 35806 ft 413 kts 278°
2026-04-22 08:19 45.88839 -101.55227 35806 ft 413 kts 278°
2026-04-22 08:19 45.89909 -101.63322 35801 ft 413 kts 278°
2026-04-22 08:20 45.90966 -101.71366 35802 ft 413 kts 278°
2026-04-22 08:20 45.92024 -101.79468 35802 ft 413 kts 278°
2026-04-22 08:21 45.93077 -101.87572 35803 ft 413 kts 278°
2026-04-22 08:21 45.94123 -101.95677 35796 ft 414 kts 278°
2026-04-22 08:22 45.95160 -102.03753 35798 ft 413 kts 278°
2026-04-22 08:22 45.96196 -102.11873 35796 ft 413 kts 278°
2026-04-22 08:23 45.97227 -102.20000 35799 ft 413 kts 278°
2026-04-22 08:23 45.98253 -102.28130 35802 ft 413 kts 278°
2026-04-22 08:24 45.99265 -102.36207 35802 ft 413 kts 277°
2026-04-22 08:24 46.00281 -102.44357 35810 ft 415 kts 277°
2026-04-22 08:25 46.01293 -102.52532 35812 ft 415 kts 277°
2026-04-22 08:25 46.02299 -102.60708 35812 ft 415 kts 277°
2026-04-22 08:26 46.03293 -102.68833 35815 ft 415 kts 277°
2026-04-22 08:26 46.04287 -102.77003 35812 ft 415 kts 277°
2026-04-22 08:27 46.05276 -102.85194 35810 ft 416 kts 277°
2026-04-22 08:27 46.06261 -102.93395 35795 ft 415 kts 277°
2026-04-22 08:28 46.07239 -103.01598 35781 ft 416 kts 277°
2026-04-22 08:28 46.08206 -103.09750 35773 ft 416 kts 276°
2026-04-22 08:29 46.09173 -103.17959 35800 ft 416 kts 276°
2026-04-22 08:29 46.10133 -103.26168 35808 ft 417 kts 276°
2026-04-22 08:30 46.11092 -103.34412 35804 ft 417 kts 276°
2026-04-22 08:30 46.12039 -103.42605 35806 ft 417 kts 276°
2026-04-22 08:31 46.12985 -103.50853 35792 ft 417 kts 276°
2026-04-22 08:32 46.14395 -103.63235 35774 ft 417 kts 276°
2026-04-22 08:32 46.15328 -103.71504 35772 ft 418 kts 276°
2026-04-22 08:33 46.16249 -103.79719 35753 ft 418 kts 276°
2026-04-22 08:33 46.17171 -103.88000 35744 ft 418 kts 275°
2026-04-22 08:34 46.18087 -103.96287 35747 ft 418 kts 275°
2026-04-22 08:34 46.18998 -104.04573 35749 ft 418 kts 275°
2026-04-22 08:35 46.19896 -104.12811 35767 ft 419 kts 275°
2026-04-22 08:35 46.20798 -104.21137 35771 ft 420 kts 275°
2026-04-22 08:36 46.21693 -104.29457 35780 ft 420 kts 275°
2026-04-22 08:36 46.22583 -104.37789 35780 ft 420 kts 275°
2026-04-22 08:37 46.23466 -104.46119 35764 ft 420 kts 275°
2026-04-22 08:37 46.24337 -104.54388 35752 ft 420 kts 274°
2026-04-22 08:38 46.25210 -104.62737 35739 ft 420 kts 274°
2026-04-22 08:38 46.26076 -104.71087 35710 ft 420 kts 274°
2026-04-22 08:39 46.26936 -104.79440 35702 ft 420 kts 274°
2026-04-22 08:39 46.27791 -104.87796 35694 ft 420 kts 274°
2026-04-22 08:40 46.28633 -104.96097 35709 ft 420 kts 274°
2026-04-22 08:40 46.29475 -105.04452 35685 ft 419 kts 274°
2026-04-22 08:41 46.30308 -105.12795 35679 ft 420 kts 274°
2026-04-22 08:41 46.31139 -105.21153 35682 ft 420 kts 274°
2026-04-22 08:42 46.31964 -105.29511 35670 ft 420 kts 274°
2026-04-22 08:42 46.32778 -105.37813 35672 ft 419 kts 274°
2026-04-22 08:43 46.33592 -105.46180 35671 ft 420 kts 273°
2026-04-22 08:43 46.34402 -105.54563 35668 ft 421 kts 273°
2026-04-22 08:44 46.35206 -105.62954 35655 ft 421 kts 273°
2026-04-22 08:44 46.35999 -105.71283 35656 ft 421 kts 273°
2026-04-22 08:45 46.36791 -105.79676 35644 ft 421 kts 272°
2026-04-22 08:45 46.37577 -105.88068 35644 ft 421 kts 272°
2026-04-22 08:46 46.38409 -105.96459 35636 ft 422 kts 275°
2026-04-22 08:46 46.39398 -106.04778 35637 ft 422 kts 275°
2026-04-22 08:47 46.40384 -106.13146 35637 ft 422 kts 275°
2026-04-22 08:47 46.41364 -106.21526 35637 ft 422 kts 274°
2026-04-22 08:48 46.42337 -106.29911 35643 ft 423 kts 274°
2026-04-22 08:48 46.43309 -106.38328 35628 ft 423 kts 274°
2026-04-22 08:49 46.44267 -106.46686 35617 ft 423 kts 274°
2026-04-22 08:49 46.45225 -106.55093 35614 ft 423 kts 274°
2026-04-22 08:50 46.46176 -106.63509 35610 ft 423 kts 274°
2026-04-22 08:50 46.47122 -106.71929 35604 ft 423 kts 274°
2026-04-22 08:51 46.48064 -106.80375 35605 ft 425 kts 274°
2026-04-22 08:51 46.48996 -106.88791 35596 ft 425 kts 274°
2026-04-22 08:52 46.49928 -106.97261 35594 ft 425 kts 274°
2026-04-22 08:52 46.50853 -107.05731 35583 ft 425 kts 274°
2026-04-22 08:53 46.51771 -107.14191 35600 ft 424 kts 274°
2026-04-22 08:53 46.52681 -107.22648 35594 ft 425 kts 273°
2026-04-22 08:54 46.53582 -107.31074 35597 ft 425 kts 273°
2026-04-22 08:54 46.54482 -107.39559 35590 ft 425 kts 273°
2026-04-22 08:55 46.55376 -107.48042 35600 ft 425 kts 273°
2026-04-22 08:55 46.56264 -107.56529 35602 ft 425 kts 273°
2026-04-22 08:56 46.57144 -107.65010 35606 ft 425 kts 273°
2026-04-22 08:56 46.58014 -107.73453 35606 ft 425 kts 272°
2026-04-22 08:57 46.58884 -107.81956 35600 ft 425 kts 272°
2026-04-22 08:57 46.59747 -107.90463 35628 ft 425 kts 272°
2026-04-22 08:58 46.60595 -107.98884 35602 ft 422 kts 272°
2026-04-22 08:58 46.61440 -108.07332 35610 ft 423 kts 272°
2026-04-22 08:59 46.62281 -108.15812 35606 ft 424 kts 272°
2026-04-22 08:59 46.63118 -108.24315 35606 ft 424 kts 271°
2026-04-22 09:00 46.63948 -108.32818 35600 ft 424 kts 271°
2026-04-22 09:00 46.64766 -108.41262 35610 ft 424 kts 271°
2026-04-22 09:01 46.65583 -108.49762 35610 ft 424 kts 271°
2026-04-22 09:01 46.66394 -108.58264 35604 ft 425 kts 271°
2026-04-22 09:02 46.67200 -108.66792 35590 ft 425 kts 271°
2026-04-22 09:02 46.68001 -108.75327 35604 ft 425 kts 271°
2026-04-22 09:03 46.68788 -108.83789 35583 ft 424 kts 271°
2026-04-22 09:03 46.69574 -108.92309 35585 ft 424 kts 271°
2026-04-22 09:04 46.70354 -109.00832 35608 ft 425 kts 271°
2026-04-22 09:04 46.71129 -109.09375 35589 ft 426 kts 271°
2026-04-22 09:05 46.71894 -109.17885 35584 ft 426 kts 270°
2026-04-22 09:05 46.72659 -109.26456 35587 ft 426 kts 270°
2026-04-22 09:06 46.73416 -109.35023 35577 ft 426 kts 270°
2026-04-22 09:06 46.74167 -109.43588 35573 ft 426 kts 270°
2026-04-22 09:07 46.74908 -109.52122 35578 ft 429 kts 270°
2026-04-22 09:07 46.75651 -109.60743 35565 ft 428 kts 270°
2026-04-22 09:08 46.76387 -109.69369 35570 ft 429 kts 270°
2026-04-22 09:08 46.77117 -109.77998 35565 ft 428 kts 270°
2026-04-22 09:09 46.77839 -109.86627 35570 ft 429 kts 270°
2026-04-22 09:09 46.78551 -109.95203 35586 ft 429 kts 270°
2026-04-22 09:10 46.79261 -110.03837 35570 ft 429 kts 270°
2026-04-22 09:10 46.79966 -110.12481 35582 ft 429 kts 270°
2026-04-22 09:11 46.80663 -110.21129 35592 ft 429 kts 270°
2026-04-22 09:11 46.81350 -110.29723 35584 ft 429 kts 270°
2026-04-22 09:12 46.82035 -110.38374 35586 ft 429 kts 270°
2026-04-22 09:12 46.82712 -110.47010 35591 ft 429 kts 270°
2026-04-22 09:13 46.83383 -110.55664 35582 ft 428 kts 270°
2026-04-22 09:13 46.84048 -110.64314 35590 ft 429 kts 270°
2026-04-22 09:14 46.84701 -110.72899 35576 ft 428 kts 270°
2026-04-22 09:14 46.85353 -110.81549 35576 ft 428 kts 269°
2026-04-22 09:15 46.86000 -110.90243 35564 ft 432 kts 270°
2026-04-22 09:15 46.86644 -110.98968 35574 ft 432 kts 269°
2026-04-22 09:16 46.87281 -111.07703 35554 ft 432 kts 269°
2026-04-22 09:16 46.87907 -111.16379 35554 ft 432 kts 269°
2026-04-22 09:17 46.88531 -111.25118 35532 ft 432 kts 269°
2026-04-22 09:17 46.89150 -111.33869 35545 ft 434 kts 269°
2026-04-22 09:18 46.89764 -111.42655 35529 ft 435 kts 269°
2026-04-22 09:18 46.90375 -111.51457 35530 ft 435 kts 269°
2026-04-22 09:19 46.90975 -111.60197 35539 ft 434 kts 269°
2026-04-22 09:19 46.91572 -111.68992 35538 ft 434 kts 269°
2026-04-22 09:20 46.92162 -111.77789 35618 ft 435 kts 269°
2026-04-22 09:20 46.92746 -111.86572 35518 ft 433 kts 269°
2026-04-22 09:20 46.93035 -111.90957 35620 ft 434 kts 269°
2026-04-22 09:21 46.93319 -111.95306 35579 ft 435 kts 269°
2026-04-22 09:21 46.94078 -112.04066 35574 ft 440 kts 277°
2026-04-22 09:22 46.95486 -112.12798 35582 ft 441 kts 276°
2026-04-22 09:22 46.96874 -112.21532 35559 ft 440 kts 276°
2026-04-22 09:23 46.98256 -112.30273 35577 ft 441 kts 276°
2026-04-22 09:23 46.99635 -112.39035 35530 ft 441 kts 276°
2026-04-22 09:24 47.00996 -112.47728 35532 ft 441 kts 276°
2026-04-22 09:24 47.02360 -112.56492 35522 ft 441 kts 276°
2026-04-22 09:25 47.03718 -112.65259 35527 ft 441 kts 276°
2026-04-22 09:25 47.05071 -112.74043 35503 ft 441 kts 276°
2026-04-22 09:26 47.06411 -112.82795 35514 ft 445 kts 276°
2026-04-22 09:26 47.07759 -112.91646 35517 ft 445 kts 276°
2026-04-22 09:27 47.09101 -113.00509 35505 ft 445 kts 276°
2026-04-22 09:27 47.10436 -113.09375 35540 ft 445 kts 276°
2026-04-22 09:28 47.11757 -113.18187 35519 ft 445 kts 276°
2026-04-22 09:28 47.13079 -113.27062 35549 ft 445 kts 276°
2026-04-22 09:29 47.14397 -113.35965 35520 ft 447 kts 276°
2026-04-22 09:29 47.15710 -113.44882 35532 ft 447 kts 275°
2026-04-22 09:30 47.17019 -113.53825 35512 ft 447 kts 276°
2026-04-22 09:30 47.18309 -113.62688 35539 ft 447 kts 275°
2026-04-22 09:31 47.19602 -113.71626 35541 ft 447 kts 275°
2026-04-22 09:31 47.20887 -113.80568 35507 ft 447 kts 275°
2026-04-22 09:32 47.22176 -113.89569 35545 ft 452 kts 275°
2026-04-22 09:32 47.23462 -113.98617 35526 ft 451 kts 275°
2026-04-22 09:33 47.24730 -114.07590 35540 ft 451 kts 275°
2026-04-22 09:33 47.26001 -114.16640 35533 ft 451 kts 275°
2026-04-22 09:34 47.27265 -114.25696 35533 ft 452 kts 275°
2026-04-22 09:34 47.28515 -114.34706 35529 ft 453 kts 275°
2026-04-22 09:35 47.30394 -114.48357 35533 ft 453 kts 275°
2026-04-22 09:35 47.31638 -114.57467 35523 ft 453 kts 275°
2026-04-22 09:36 47.32876 -114.66578 35515 ft 454 kts 275°
2026-04-22 09:36 47.34107 -114.75710 35532 ft 454 kts 275°
2026-04-22 09:37 47.35323 -114.84786 35538 ft 454 kts 275°
2026-04-22 09:37 47.36544 -114.93954 35529 ft 456 kts 275°
2026-04-22 09:38 47.37757 -115.03117 35519 ft 455 kts 275°
2026-04-22 09:38 47.38963 -115.12292 35531 ft 455 kts 275°
2026-04-22 09:39 47.40152 -115.21396 35510 ft 454 kts 275°
2026-04-22 09:39 47.41342 -115.30566 35535 ft 456 kts 275°
2026-04-22 09:40 47.42529 -115.39747 35527 ft 455 kts 274°
2026-04-22 09:40 47.43706 -115.48920 35533 ft 455 kts 274°
2026-04-22 09:41 47.44878 -115.58107 35523 ft 455 kts 274°
2026-04-22 09:41 47.45794 -115.67249 35525 ft 448 kts 267°
2026-04-22 09:42 47.46301 -115.76458 35532 ft 450 kts 269°
2026-04-22 09:42 47.46867 -115.85659 35617 ft 450 kts 269°
2026-04-22 09:43 47.47432 -115.94820 35563 ft 450 kts 269°
2026-04-22 09:43 47.47993 -116.04030 35544 ft 450 kts 269°
2026-04-22 09:44 47.48549 -116.13249 35608 ft 450 kts 269°
2026-04-22 09:44 47.49096 -116.22467 35589 ft 449 kts 269°
2026-04-22 09:45 47.49635 -116.31680 35619 ft 450 kts 269°
2026-04-22 09:45 47.50164 -116.40841 35625 ft 451 kts 269°
2026-04-22 09:46 47.50690 -116.50091 35643 ft 452 kts 269°
2026-04-22 09:46 47.51209 -116.59340 35669 ft 451 kts 269°
2026-04-22 09:47 47.51721 -116.68580 35699 ft 450 kts 268°
2026-04-22 09:47 47.52220 -116.77761 35687 ft 450 kts 268°
2026-04-22 09:48 47.52716 -116.86991 35734 ft 451 kts 269°
2026-04-22 09:48 47.53205 -116.96244 35711 ft 451 kts 269°
2026-04-22 09:49 47.53687 -117.05510 35716 ft 452 kts 268°
2026-04-22 09:49 47.54162 -117.14779 35711 ft 452 kts 268°
2026-04-22 09:50 47.54626 -117.23986 35741 ft 451 kts 268°
2026-04-22 09:50 47.55085 -117.33233 35741 ft 449 kts 268°
2026-04-22 09:51 47.55534 -117.42440 35733 ft 448 kts 269°
2026-04-22 09:51 47.55978 -117.51634 35741 ft 448 kts 269°
2026-04-22 09:52 47.56413 -117.60779 35709 ft 448 kts 269°
2026-04-22 09:52 47.57298 -117.69968 35722 ft 452 kts 273°
2026-04-22 09:53 47.58194 -117.79166 35708 ft 451 kts 273°
2026-04-22 09:53 47.59066 -117.88367 35721 ft 451 kts 273°
2026-04-22 09:54 47.59923 -117.97509 35693 ft 451 kts 273°
2026-04-22 09:54 47.60778 -118.06707 35679 ft 451 kts 273°
2026-04-22 09:55 47.61626 -118.15914 35658 ft 451 kts 273°
2026-04-22 09:55 47.62467 -118.25126 35656 ft 451 kts 273°
2026-04-22 09:56 47.63300 -118.34339 35664 ft 451 kts 273°
2026-04-22 09:56 47.64177 -118.43547 35662 ft 451 kts 273°
2026-04-22 09:57 47.64947 -118.52735 35655 ft 452 kts 274°
2026-04-22 09:57 47.65756 -118.61985 35648 ft 452 kts 274°
2026-04-22 09:58 47.66561 -118.71242 35647 ft 453 kts 274°
2026-04-22 09:58 47.67360 -118.80505 35647 ft 452 kts 274°
2026-04-22 09:59 47.68147 -118.89708 35639 ft 452 kts 274°
2026-04-22 09:59 47.68941 -118.98973 35636 ft 453 kts 274°
2026-04-22 10:00 47.69709 -119.08264 35636 ft 453 kts 274°
2026-04-22 10:00 47.70481 -119.17560 35630 ft 454 kts 274°
2026-04-22 10:01 47.71244 -119.26853 35627 ft 453 kts 274°
2026-04-22 10:01 47.71995 -119.36072 35630 ft 452 kts 274°
2026-04-22 10:02 47.72738 -119.45220 35638 ft 438 kts 274°
2026-04-22 10:02 47.73447 -119.54130 35632 ft 433 kts 274°
2026-04-22 10:03 47.74152 -119.63010 35631 ft 433 kts 274°
2026-04-22 10:03 47.74846 -119.71835 35634 ft 433 kts 274°
2026-04-22 10:04 47.75539 -119.80723 35645 ft 433 kts 274°
2026-04-22 10:04 47.76224 -119.89603 35647 ft 433 kts 274°
2026-04-22 10:05 47.76903 -119.98496 35676 ft 433 kts 274°
2026-04-22 10:05 47.77576 -120.07392 35675 ft 433 kts 274°
2026-04-22 10:06 47.78239 -120.16254 35669 ft 434 kts 273°
2026-04-22 10:06 47.78898 -120.25177 35700 ft 434 kts 273°
2026-04-22 10:07 47.79551 -120.34101 35699 ft 434 kts 273°
2026-04-22 10:07 47.80197 -120.43028 35716 ft 434 kts 273°
2026-04-22 10:08 47.80832 -120.51896 35745 ft 434 kts 273°
2026-04-22 10:08 47.81463 -120.60814 35771 ft 434 kts 273°
2026-04-22 10:09 47.82089 -120.69742 35770 ft 434 kts 272°
2026-04-22 10:09 47.82707 -120.78665 35796 ft 433 kts 272°
2026-04-22 10:10 47.83316 -120.87575 35800 ft 433 kts 272°
2026-04-22 10:10 47.83915 -120.96442 35790 ft 433 kts 272°
2026-04-22 10:11 47.84512 -121.05371 35848 ft 434 kts 272°
2026-04-22 10:11 47.85103 -121.14325 35853 ft 435 kts 272°
2026-04-22 10:12 47.85688 -121.23280 35848 ft 435 kts 272°
2026-04-22 10:12 47.86265 -121.32239 35890 ft 433 kts 272°
2026-04-22 10:13 47.86829 -121.41103 35890 ft 432 kts 272°
2026-04-22 10:13 47.87389 -121.50002 35940 ft 432 kts 272°
2026-04-22 10:14 47.87944 -121.58925 35926 ft 433 kts 272°
2026-04-22 10:14 47.87579 -121.67746 35931 ft 427 kts 247°
2026-04-22 10:15 47.84725 -121.75432 35928 ft 425 kts 227°
2026-04-22 10:15 47.80727 -121.81895 35931 ft 424 kts 219°
2026-04-22 10:16 47.76267 -121.87422 35923 ft 415 kts 217°
2026-04-22 10:16 47.71966 -121.93005 35920 ft 409 kts 219°
2026-04-22 10:17 47.67740 -121.98642 35920 ft 408 kts 219°
2026-04-22 10:17 47.63526 -122.04294 35919 ft 409 kts 219°
2026-04-22 10:18 47.59348 -122.09937 35916 ft 410 kts 220°
2026-04-22 10:18 47.57491 -122.13166 35892 ft 416 kts 236°
2026-04-22 10:18 47.56258 -122.17039 35923 ft 420 kts 250°
2026-04-22 10:19 47.55716 -122.21308 35918 ft 425 kts 263°
2026-04-22 10:19 47.55498 -122.25675 35916 ft 426 kts 262°
2026-04-22 10:19 47.54977 -122.34401 35910 ft 424 kts 262°
2026-04-22 10:20 47.54468 -122.43074 35912 ft 419 kts 262°
2026-04-22 10:20 47.54223 -122.47285 35917 ft 403 kts 262°
2026-04-22 10:20 47.53991 -122.51278 35915 ft 388 kts 262°
2026-04-22 10:21 47.53547 -122.59106 35902 ft 378 kts 262°
2026-04-22 10:21 47.53108 -122.66840 35910 ft 377 kts 262°
2026-04-22 10:22 47.52666 -122.74572 35911 ft 377 kts 262°
2026-04-22 10:22 47.52227 -122.82255 35905 ft 377 kts 262°
2026-04-22 10:23 47.51787 -122.89984 35904 ft 377 kts 262°
2026-04-22 10:23 47.51348 -122.97712 35903 ft 377 kts 262°
2026-04-22 10:24 47.50985 -123.04130 35907 ft 377 kts 262°
2026-04-22 10:24 47.50448 -123.13147 35910 ft 376 kts 262°
2026-04-22 10:25 47.49959 -123.20787 35918 ft 375 kts 262°
2026-04-22 10:25 47.49456 -123.28463 35911 ft 375 kts 262°
2026-04-22 10:26 47.49048 -123.34832 35910 ft 374 kts 261°
2026-04-22 10:26 47.48548 -123.42481 35930 ft 374 kts 263°
2026-04-22 10:27 47.48057 -123.50139 35941 ft 374 kts 262°
2026-04-22 10:27 47.47478 -123.59042 35947 ft 374 kts 260°
2026-04-22 10:28 47.47120 -123.65471 35940 ft 375 kts 265°
2026-04-22 10:28 47.46716 -123.73096 35970 ft 375 kts 262°
2026-04-22 10:29 47.46259 -123.80760 35971 ft 374 kts 262°
2026-04-22 10:29 47.45847 -123.88438 35970 ft 375 kts 264°
2026-04-22 10:30 47.45410 -123.96108 35973 ft 375 kts 263°
2026-04-22 10:30 47.44985 -124.03732 35978 ft 375 kts 262°
2026-04-22 10:31 47.44516 -124.11404 35977 ft 375 kts 262°
2026-04-22 10:31 47.44035 -124.19060 35974 ft 374 kts 262°
2026-04-22 10:32 47.43552 -124.26688 35978 ft 373 kts 262°
2026-04-22 10:32 47.43076 -124.34326 35978 ft 373 kts 262°
2026-04-22 10:33 47.42598 -124.41910 35976 ft 373 kts 262°
2026-04-22 10:33 47.42127 -124.49545 35980 ft 373 kts 262°
2026-04-22 10:34 47.41642 -124.57179 35977 ft 373 kts 262°
2026-04-22 10:34 47.41165 -124.64812 35978 ft 373 kts 262°
2026-04-22 10:35 47.40686 -124.72383 35980 ft 373 kts 262°
2026-04-22 10:35 47.40212 -124.80013 35980 ft 373 kts 262°
2026-04-22 10:36 47.39733 -124.87641 35978 ft 373 kts 262°
2026-04-22 10:36 47.39262 -124.95267 35978 ft 373 kts 262°
2026-04-22 10:37 47.38610 -125.06653 35988 ft 372 kts 263°
2026-04-22 10:38 47.38132 -125.14210 35983 ft 370 kts 263°
2026-04-22 10:38 47.37629 -125.21765 35984 ft 370 kts 262°
2026-04-22 10:39 47.37133 -125.29323 35979 ft 370 kts 262°
2026-04-22 10:39 47.36632 -125.36877 35979 ft 370 kts 262°
2026-04-22 10:40 47.36113 -125.44382 35979 ft 371 kts 262°
2026-04-22 10:40 47.35632 -125.51986 35983 ft 373 kts 262°
2026-04-22 10:41 47.35160 -125.59609 35979 ft 373 kts 263°
2026-04-22 10:41 47.34679 -125.67222 35984 ft 373 kts 262°
2026-04-22 10:42 47.34215 -125.74787 35978 ft 373 kts 262°
2026-04-22 10:42 47.33738 -125.82398 35986 ft 373 kts 263°
2026-04-22 10:43 47.33287 -125.90012 35979 ft 373 kts 263°
2026-04-22 10:43 47.32832 -125.97621 35981 ft 373 kts 263°
2026-04-22 10:44 47.32377 -126.05222 35989 ft 372 kts 262°
2026-04-22 10:44 47.31875 -126.12760 35988 ft 372 kts 262°
2026-04-22 10:45 47.31395 -126.20350 35992 ft 372 kts 262°
2026-04-22 10:45 47.30909 -126.27941 35984 ft 372 kts 262°
2026-04-22 10:46 47.30446 -126.35523 35993 ft 372 kts 264°
2026-04-22 10:46 47.30005 -126.43141 36000 ft 374 kts 261°
2026-04-22 10:47 47.29518 -126.50719 35996 ft 374 kts 263°
2026-04-22 10:47 47.29010 -126.58343 36002 ft 374 kts 261°
2026-04-22 10:48 47.28537 -126.65969 36010 ft 374 kts 263°
2026-04-22 10:48 47.28022 -126.73597 36009 ft 374 kts 263°
2026-04-22 10:49 47.27525 -126.81215 36013 ft 374 kts 263°
2026-04-22 10:49 47.27182 -126.88811 36021 ft 376 kts 263°
2026-04-22 10:50 47.26648 -126.96470 36016 ft 376 kts 262°
2026-04-22 10:50 47.26180 -127.04144 36017 ft 376 kts 262°
2026-04-22 10:51 47.25699 -127.11799 36022 ft 376 kts 264°
2026-04-22 10:51 47.25170 -127.19409 36023 ft 376 kts 263°
2026-04-22 10:52 47.24669 -127.27056 36018 ft 376 kts 262°
2026-04-22 10:52 47.24136 -127.34730 36041 ft 377 kts 260°
2026-04-22 10:53 47.23576 -127.42423 36023 ft 379 kts 264°
2026-04-22 10:53 47.23097 -127.50102 36045 ft 378 kts 263°
2026-04-22 10:54 47.22605 -127.57800 36042 ft 378 kts 263°
2026-04-22 10:54 47.22104 -127.65489 36035 ft 376 kts 262°
2026-04-22 10:55 47.21582 -127.73128 36038 ft 376 kts 263°
2026-04-22 10:55 47.21028 -127.80794 36048 ft 377 kts 262°
2026-04-22 10:56 47.20406 -127.88385 36051 ft 376 kts 262°
2026-04-22 10:56 47.19776 -127.96035 36049 ft 376 kts 263°
2026-04-22 10:57 47.19155 -128.03672 36055 ft 376 kts 263°
2026-04-22 10:57 47.18529 -128.11321 36054 ft 376 kts 262°
2026-04-22 10:58 47.17911 -128.18948 36063 ft 377 kts 262°
2026-04-22 10:58 47.17252 -128.26540 36057 ft 377 kts 263°
2026-04-22 10:59 47.16571 -128.34194 36078 ft 379 kts 263°
2026-04-22 10:59 47.15811 -128.41846 36055 ft 377 kts 263°
2026-04-22 11:00 47.15042 -128.49377 36060 ft 369 kts 265°
2026-04-22 11:00 47.14465 -128.56853 36046 ft 368 kts 264°
2026-04-22 11:01 47.13766 -128.64248 36065 ft 369 kts 264°
2026-04-22 11:01 47.13007 -128.71701 36078 ft 369 kts 264°
2026-04-22 11:02 47.12010 -128.79118 36074 ft 370 kts 263°
2026-04-22 11:02 47.11378 -128.86559 36104 ft 365 kts 272°
2026-04-22 11:03 47.10789 -128.93950 36135 ft 369 kts 266°
2026-04-22 11:03 47.09959 -129.01388 36143 ft 369 kts 262°
2026-04-22 11:04 47.09061 -129.08823 36102 ft 370 kts 264°
2026-04-22 11:04 47.08182 -129.16242 36094 ft 369 kts 264°
2026-04-22 11:05 47.07240 -129.23617 36116 ft 368 kts 262°
2026-04-22 11:05 47.06280 -129.30937 36101 ft 367 kts 262°
2026-04-22 11:06 47.05298 -129.38249 36135 ft 364 kts 261°
2026-04-22 11:06 47.04371 -129.45522 36134 ft 363 kts 261°
2026-04-22 11:07 47.03416 -129.52805 36107 ft 364 kts 264°
2026-04-22 11:07 47.02452 -129.60074 36106 ft 365 kts 261°
2026-04-22 11:08 47.01398 -129.67280 36127 ft 364 kts 263°
2026-04-22 11:08 47.00531 -129.74570 36141 ft 363 kts 263°
2026-04-22 11:09 46.99605 -129.81828 36136 ft 362 kts 262°
2026-04-22 11:09 46.98746 -129.89083 36129 ft 362 kts 263°
2026-04-22 11:10 46.97774 -129.96330 36122 ft 366 kts 262°
2026-04-22 11:10 46.96718 -130.03523 36126 ft 362 kts 261°
2026-04-22 11:11 46.95785 -130.10745 36151 ft 360 kts 263°
2026-04-22 11:11 46.94946 -130.17962 36147 ft 359 kts 264°
2026-04-22 11:12 46.94015 -130.25171 36146 ft 361 kts 264°
2026-04-22 11:12 46.93120 -130.32277 36162 ft 357 kts 263°
2026-04-22 11:13 46.92097 -130.39389 36132 ft 358 kts 260°
2026-04-22 11:13 46.91224 -130.46507 36169 ft 357 kts 264°
2026-04-22 11:14 46.90358 -130.53618 36160 ft 354 kts 263°
2026-04-22 11:14 46.89518 -130.60681 36186 ft 355 kts 263°
2026-04-22 11:15 46.88573 -130.67759 36183 ft 354 kts 261°
2026-04-22 11:15 46.87639 -130.74850 36176 ft 355 kts 261°
2026-04-22 11:16 46.86732 -130.81936 36179 ft 356 kts 262°
2026-04-22 11:16 46.85997 -130.89051 36157 ft 353 kts 265°
2026-04-22 11:17 46.85136 -130.96082 36204 ft 355 kts 262°
2026-04-22 11:17 46.84592 -131.03196 36183 ft 350 kts 271°
2026-04-22 11:18 46.83980 -131.10289 36186 ft 354 kts 263°
2026-04-22 11:18 46.83141 -131.17365 36173 ft 353 kts 264°
2026-04-22 11:19 46.82360 -131.24388 36174 ft 355 kts 263°
2026-04-22 11:19 46.81587 -131.31433 36157 ft 352 kts 264°
2026-04-22 11:20 46.80775 -131.38488 36194 ft 353 kts 263°
2026-04-22 11:20 46.79911 -131.45519 36192 ft 350 kts 264°
2026-04-22 11:21 46.79154 -131.52531 36212 ft 353 kts 261°
2026-04-22 11:21 46.78215 -131.59540 36221 ft 352 kts 263°
2026-04-22 11:22 46.77351 -131.66580 36203 ft 352 kts 264°
2026-04-22 11:22 46.76635 -131.73607 36228 ft 351 kts 265°
2026-04-22 11:23 46.75861 -131.80648 36202 ft 350 kts 266°
2026-04-22 11:23 46.75112 -131.87616 36233 ft 352 kts 261°
2026-04-22 11:24 46.74240 -131.94628 36216 ft 351 kts 262°
2026-04-22 11:24 46.73410 -132.01628 36226 ft 351 kts 264°
2026-04-22 11:25 46.72532 -132.08617 36215 ft 350 kts 262°
2026-04-22 11:25 46.71720 -132.15608 36236 ft 351 kts 264°
2026-04-22 11:26 46.70869 -132.22592 36237 ft 349 kts 264°
2026-04-22 11:26 46.70114 -132.29545 36241 ft 349 kts 264°
2026-04-22 11:27 46.69282 -132.36513 36243 ft 349 kts 263°
2026-04-22 11:27 46.68389 -132.43478 36251 ft 350 kts 262°
2026-04-22 11:28 46.67540 -132.50442 36254 ft 349 kts 264°
2026-04-22 11:28 46.66717 -132.57355 36247 ft 349 kts 264°
2026-04-22 11:29 46.65835 -132.64303 36254 ft 349 kts 263°
2026-04-22 11:29 46.64934 -132.71254 36246 ft 349 kts 263°
2026-04-22 11:30 46.64033 -132.78181 36263 ft 348 kts 262°
2026-04-22 11:30 46.63145 -132.85056 36268 ft 348 kts 262°
2026-04-22 11:31 46.62253 -132.91969 36273 ft 348 kts 263°
2026-04-22 11:31 46.61360 -132.98887 36266 ft 348 kts 262°
2026-04-22 11:32 46.60462 -133.05805 36269 ft 348 kts 262°
2026-04-22 11:32 46.59578 -133.12674 36276 ft 348 kts 262°
2026-04-22 11:33 46.58677 -133.19575 36268 ft 346 kts 262°
2026-04-22 11:33 46.57777 -133.26444 36287 ft 346 kts 263°
2026-04-22 11:34 46.56877 -133.33313 36285 ft 346 kts 262°
2026-04-22 11:34 46.55979 -133.40175 36291 ft 346 kts 262°
2026-04-22 11:35 46.55079 -133.47037 36285 ft 346 kts 263°
2026-04-22 11:35 46.54186 -133.53853 36283 ft 346 kts 263°
2026-04-22 11:36 46.53286 -133.60713 36298 ft 345 kts 262°
2026-04-22 11:36 46.52389 -133.67544 36290 ft 344 kts 262°
2026-04-22 11:37 46.51498 -133.74317 36296 ft 344 kts 262°
2026-04-22 11:37 46.50599 -133.81130 36296 ft 344 kts 262°
2026-04-22 11:38 46.49702 -133.87949 36306 ft 344 kts 262°
2026-04-22 11:38 46.48352 -133.98175 36302 ft 344 kts 263°
2026-04-22 11:39 46.47458 -134.04945 36310 ft 344 kts 262°
2026-04-22 11:39 46.46559 -134.11747 36316 ft 344 kts 262°
2026-04-22 11:40 46.45659 -134.18555 36309 ft 344 kts 262°
2026-04-22 11:40 46.44759 -134.25362 36312 ft 344 kts 262°
2026-04-22 11:41 46.43859 -134.32169 36310 ft 344 kts 262°
2026-04-22 11:41 46.42967 -134.38926 36309 ft 343 kts 263°
2026-04-22 11:42 46.42074 -134.45727 36311 ft 343 kts 262°
2026-04-22 11:42 46.41183 -134.52517 36314 ft 342 kts 263°
2026-04-22 11:43 46.40295 -134.59278 36314 ft 342 kts 262°
2026-04-22 11:43 46.39404 -134.66048 36324 ft 342 kts 262°
2026-04-22 11:44 46.38518 -134.72773 36327 ft 342 kts 262°
2026-04-22 11:44 46.37627 -134.79539 36326 ft 342 kts 262°
2026-04-22 11:45 46.36736 -134.86300 36326 ft 342 kts 262°
2026-04-22 11:45 46.35845 -134.93054 36314 ft 342 kts 262°
2026-04-22 11:46 46.34963 -134.99796 36331 ft 340 kts 262°
2026-04-22 11:46 46.34080 -135.06520 36338 ft 340 kts 262°
2026-04-22 11:47 46.33200 -135.13201 36338 ft 340 kts 262°
2026-04-22 11:47 46.32315 -135.19927 36337 ft 340 kts 262°
2026-04-22 11:48 46.31430 -135.26649 36339 ft 340 kts 262°
2026-04-22 11:48 46.30543 -135.33369 36343 ft 340 kts 262°
2026-04-22 11:49 46.29667 -135.40036 36341 ft 340 kts 262°
2026-04-22 11:49 46.28793 -135.46749 36345 ft 340 kts 262°
2026-04-22 11:50 46.27918 -135.53458 36346 ft 340 kts 262°
2026-04-22 11:50 46.27044 -135.60165 36348 ft 339 kts 262°
2026-04-22 11:51 46.26168 -135.66870 36349 ft 339 kts 262°
2026-04-22 11:51 46.25298 -135.73530 36351 ft 340 kts 262°
2026-04-22 11:52 46.24424 -135.80232 36351 ft 339 kts 262°
2026-04-22 11:52 46.23559 -135.86923 36348 ft 339 kts 262°
2026-04-22 11:53 46.22704 -135.93623 36349 ft 339 kts 262°
2026-04-22 11:53 46.21857 -136.00280 36351 ft 339 kts 262°
2026-04-22 11:54 46.21002 -136.06980 36354 ft 339 kts 262°
2026-04-22 11:54 46.20148 -136.13676 36358 ft 339 kts 262°
2026-04-22 11:55 46.19292 -136.20372 36366 ft 339 kts 262°
2026-04-22 11:55 46.18438 -136.27060 36356 ft 339 kts 262°
2026-04-22 11:56 46.17602 -136.33712 36365 ft 339 kts 262°
2026-04-22 11:56 46.16762 -136.40417 36368 ft 340 kts 262°
2026-04-22 11:57 46.15921 -136.47120 36367 ft 339 kts 262°
2026-04-22 11:57 46.15084 -136.53773 36367 ft 339 kts 262°
2026-04-22 11:58 46.14243 -136.60463 36369 ft 339 kts 262°
2026-04-22 11:58 46.13404 -136.67162 36373 ft 340 kts 262°
2026-04-22 11:59 46.12297 -136.73747 36114 ft 341 kts 252°
2026-04-22 11:59 46.11673 -136.76343 35731 ft 341 kts 254°